INTELSAT 18 (IS-18)

Last updated on Sun Apr 12 2026 00:02:52 GMT+0000 (Coordinated Universal Time)

1 37834U 11056A 26101.46225367 .00000055 00000+0 00000+0 0 9991 2 37834 0.0218 257.3374 0001637 120.2198 168.5371 1.00274146 53148
UTC large
Height (km)
Speed (km/s)
/
Latitude / Longitude
Inclination (degrees)
Orbital Period (minutes)
Azimuth
Elevation
Range (km)
Doppler Factor

Next 0 passes for location: London (51.5072 / 0.1276)

Sorry there are no passes over London.
INTELSAT 18 (IS-18)